Time,TemperatureF,DewpointF,PressureIn,WindDirection,WindDirectionDegrees,WindSpeedMPH,WindSpeedGustMPH,Humidity,HourlyPrecipIn,Conditions,Clouds,dailyrainin,SoftwareType,DateUTC
2013-08-04 00:02:00,57.9,54.7,30.06,NE,55,0.0,0.0,89,0.00,,,0.00,meteohub,2013-08-04 05:02:00,
2013-08-04 00:08:00,57.7,54.5,30.06,NE,56,0.0,0.0,89,0.00,,,0.00,meteohub,2013-08-04 05:08:00,
2013-08-04 00:13:00,57.6,54.7,30.06,NE,56,0.0,0.0,90,0.00,,,0.00,meteohub,2013-08-04 05:13:00,
2013-08-04 00:18:00,57.4,54.5,30.06,NE,56,0.0,0.0,90,0.00,,,0.00,meteohub,2013-08-04 05:18:00,
2013-08-04 00:23:00,57.2,54.3,30.06,NE,55,0.0,0.0,90,0.00,,,0.00,meteohub,2013-08-04 05:23:00,
2013-08-04 00:28:00,57.0,54.1,30.06,NE,56,0.0,0.0,90,0.00,,,0.00,meteohub,2013-08-04 05:28:00,
2013-08-04 00:33:00,57.0,54.5,30.06,NE,56,0.0,0.0,91,0.00,,,0.00,meteohub,2013-08-04 05:33:00,
2013-08-04 00:38:00,56.8,54.3,30.06,NE,56,0.0,0.0,91,0.00,,,0.00,meteohub,2013-08-04 05:38:00,
2013-08-04 00:43:00,56.7,54.1,30.07,NE,55,0.0,0.0,91,0.00,,,0.00,meteohub,2013-08-04 05:43:00,
2013-08-04 00:48:00,56.7,54.1,30.06,NE,55,0.0,0.0,91,0.00,,,0.00,meteohub,2013-08-04 05:48:00,
2013-08-04 00:53:00,56.5,54.0,30.06,NE,56,0.0,0.0,91,0.00,,,0.00,meteohub,2013-08-04 05:53:00,
2013-08-04 00:58:00,56.3,54.0,30.06,NE,56,0.0,0.0,92,0.00,,,0.00,meteohub,2013-08-04 05:58:00,
2013-08-04 01:03:00,56.1,53.8,30.06,NE,56,0.0,0.0,92,0.00,,,0.00,meteohub,2013-08-04 06:03:00,
2013-08-04 01:08:00,55.9,53.6,30.07,NE,56,0.0,0.0,92,0.00,,,0.00,meteohub,2013-08-04 06:08:00,
2013-08-04 01:13:00,55.8,53.8,30.06,NE,56,0.0,0.0,93,0.00,,,0.00,meteohub,2013-08-04 06:13:00,
2013-08-04 01:18:00,55.6,53.6,30.06,NE,56,0.0,0.0,93,0.00,,,0.00,meteohub,2013-08-04 06:18:00,
2013-08-04 01:23:00,55.2,53.2,30.06,NE,56,0.0,0.0,93,0.00,,,0.00,meteohub,2013-08-04 06:23:00,
2013-08-04 01:28:00,55.0,53.1,30.06,NE,56,0.0,0.0,93,0.00,,,0.00,meteohub,2013-08-04 06:28:00,
2013-08-04 01:33:00,54.9,53.2,30.07,NE,56,0.0,0.0,94,0.00,,,0.00,meteohub,2013-08-04 06:33:00,
2013-08-04 01:38:00,54.9,53.2,30.06,NE,56,0.0,0.0,94,0.00,,,0.00,meteohub,2013-08-04 06:38:00,
2013-08-04 01:43:00,54.7,53.2,30.07,NE,56,0.0,0.0,95,0.00,,,0.00,meteohub,2013-08-04 06:43:00,
2013-08-04 01:48:00,54.7,53.2,30.07,NE,56,0.0,0.0,95,0.00,,,0.00,meteohub,2013-08-04 06:48:00,
2013-08-04 01:53:00,54.7,53.2,30.07,NE,56,0.0,0.0,95,0.00,,,0.00,meteohub,2013-08-04 06:53:00,
2013-08-04 01:58:00,54.9,53.8,30.07,NW,318,0.0,0.0,96,0.00,,,0.00,meteohub,2013-08-04 06:58:00,
2013-08-04 02:03:00,55.0,54.0,30.07,WNW,294,0.0,1.0,96,0.00,,,0.00,meteohub,2013-08-04 07:03:00,
2013-08-04 02:08:00,55.6,54.1,30.07,NW,326,0.0,1.0,95,0.00,,,0.00,meteohub,2013-08-04 07:08:00,
2013-08-04 02:13:00,55.8,54.1,30.07,NNW,327,0.0,2.0,94,0.00,,,0.00,meteohub,2013-08-04 07:13:00,
2013-08-04 02:18:00,55.9,54.0,30.07,NNW,327,0.0,2.0,93,0.00,,,0.00,meteohub,2013-08-04 07:18:00,
2013-08-04 02:24:00,55.9,53.6,30.07,West,271,1.0,2.0,92,0.00,,,0.00,meteohub,2013-08-04 07:24:00,
2013-08-04 02:29:00,55.9,53.4,30.07,West,271,0.0,1.0,91,0.00,,,0.00,meteohub,2013-08-04 07:29:00,
2013-08-04 02:34:00,56.1,53.6,30.07,WNW,297,0.0,1.0,91,0.00,,,0.00,meteohub,2013-08-04 07:34:00,
2013-08-04 02:38:00,56.1,53.6,30.07,NW,321,0.0,1.0,91,0.00,,,0.00,meteohub,2013-08-04 07:38:00,
2013-08-04 02:44:00,56.1,53.6,30.08,NNW,335,0.0,0.0,91,0.00,,,0.00,meteohub,2013-08-04 07:44:00,
2013-08-04 02:49:00,56.3,53.4,30.08,WNW,289,0.0,1.0,90,0.00,,,0.00,meteohub,2013-08-04 07:49:00,
2013-08-04 02:54:00,56.1,53.2,30.08,North,4,0.0,1.0,90,0.00,,,0.00,meteohub,2013-08-04 07:54:00,
2013-08-04 02:59:00,56.1,53.2,30.08,NNE,12,0.0,2.0,90,0.00,,,0.00,meteohub,2013-08-04 07:59:00,
2013-08-04 03:04:00,56.1,53.2,30.08,NNW,347,0.0,2.0,90,0.00,,,0.00,meteohub,2013-08-04 08:04:00,
2013-08-04 03:09:00,56.1,53.2,30.08,NW,324,0.0,2.0,90,0.00,,,0.00,meteohub,2013-08-04 08:09:00,
2013-08-04 03:14:00,56.1,53.2,30.08,NNW,339,0.0,1.0,90,0.00,,,0.00,meteohub,2013-08-04 08:14:00,
2013-08-04 03:19:00,56.1,53.2,30.08,NNW,339,0.0,0.0,90,0.00,,,0.00,meteohub,2013-08-04 08:19:00,
2013-08-04 03:24:00,55.9,53.1,30.09,NNW,348,0.0,0.0,90,0.00,,,0.00,meteohub,2013-08-04 08:24:00,
2013-08-04 03:29:00,55.9,53.1,30.09,North,349,0.0,0.0,90,0.00,,,0.00,meteohub,2013-08-04 08:29:00,
2013-08-04 03:34:00,55.9,53.1,30.09,North,350,0.0,2.0,90,0.00,,,0.00,meteohub,2013-08-04 08:34:00,
2013-08-04 03:39:00,55.9,53.1,30.09,North,351,0.0,2.0,90,0.00,,,0.00,meteohub,2013-08-04 08:39:00,
2013-08-04 03:44:00,55.9,53.4,30.09,North,353,0.0,2.0,91,0.00,,,0.00,meteohub,2013-08-04 08:44:00,
2013-08-04 03:49:00,55.9,53.4,30.09,North,351,0.0,1.0,91,0.00,,,0.00,meteohub,2013-08-04 08:49:00,
2013-08-04 03:54:00,55.9,53.4,30.09,North,349,1.0,0.0,91,0.00,,,0.00,meteohub,2013-08-04 08:54:00,
2013-08-04 03:59:00,55.9,53.4,30.09,NNW,348,0.0,2.0,91,0.00,,,0.00,meteohub,2013-08-04 08:59:00,
2013-08-04 04:04:00,55.9,53.4,30.09,North,352,1.0,2.0,91,0.00,,,0.00,meteohub,2013-08-04 09:04:00,
2013-08-04 04:09:00,55.8,53.2,30.10,North,1,0.0,2.0,91,0.00,,,0.00,meteohub,2013-08-04 09:09:00,
2013-08-04 04:14:00,55.8,53.2,30.09,WNW,288,0.0,1.0,91,0.00,,,0.00,meteohub,2013-08-04 09:14:00,
2013-08-04 04:19:00,55.8,53.2,30.09,NNW,332,0.0,1.0,91,0.00,,,0.00,meteohub,2013-08-04 09:19:00,
2013-08-04 04:24:00,55.8,53.2,30.09,North,352,2.0,2.0,91,0.00,,,0.00,meteohub,2013-08-04 09:24:00,
2013-08-04 04:29:00,55.9,53.4,30.09,NNW,336,0.0,2.0,91,0.00,,,0.00,meteohub,2013-08-04 09:29:00,
2013-08-04 04:34:00,55.9,53.4,30.09,NNW,334,1.0,3.0,91,0.00,,,0.00,meteohub,2013-08-04 09:34:00,
2013-08-04 04:39:00,55.8,53.2,30.09,NW,322,1.0,3.0,91,0.00,,,0.00,meteohub,2013-08-04 09:39:00,
2013-08-04 04:44:00,55.6,53.2,30.09,NW,325,0.0,3.0,92,0.00,,,0.00,meteohub,2013-08-04 09:44:00,
2013-08-04 04:49:00,55.6,53.2,30.09,NW,316,0.0,1.0,92,0.00,,,0.00,meteohub,2013-08-04 09:49:00,
2013-08-04 04:54:00,55.4,53.1,30.10,WNW,293,0.0,1.0,92,0.00,,,0.00,meteohub,2013-08-04 09:54:00,
2013-08-04 04:59:00,55.2,52.9,30.10,WNW,295,0.0,0.0,92,0.00,,,0.00,meteohub,2013-08-04 09:59:00,
2013-08-04 05:04:00,55.0,52.7,30.10,WNW,295,0.0,0.0,92,0.00,,,0.00,meteohub,2013-08-04 10:04:00,
2013-08-04 05:10:00,54.9,52.9,30.10,WNW,295,0.0,0.0,93,0.00,,,0.00,meteohub,2013-08-04 10:10:00,
2013-08-04 05:15:00,54.9,52.9,30.09,WNW,295,0.0,0.0,93,0.00,,,0.00,meteohub,2013-08-04 10:15:00,
2013-08-04 05:20:00,53.8,51.8,30.10,WNW,295,0.0,0.0,93,0.00,,,0.00,meteohub,2013-08-04 10:20:00,
2013-08-04 05:25:00,53.8,51.8,30.10,WNW,295,0.0,0.0,93,0.00,,,0.00,meteohub,2013-08-04 10:25:00,
2013-08-04 05:30:00,53.8,51.8,30.10,North,-999,-999.0,0.0,93,0.00,,,0.00,meteohub,2013-08-04 10:30:00,
2013-08-04 06:41:00,55.2,52.7,30.11,North,-999,-999.0,-999.0,91,-99.99,,,0.00,meteohub,2013-08-04 11:41:00,
2013-08-04 06:46:00,55.4,52.9,30.11,NW,315,1.0,-999.0,91,0.00,,,0.00,meteohub,2013-08-04 11:46:00,
2013-08-04 06:51:00,55.8,53.2,30.12,NW,324,0.0,2.0,91,0.00,,,0.00,meteohub,2013-08-04 11:51:00,
2013-08-04 06:56:00,56.3,53.8,30.12,WNW,298,0.0,2.0,91,0.00,,,0.00,meteohub,2013-08-04 11:56:00,
2013-08-04 07:01:00,56.8,54.0,30.12,North,350,0.0,2.0,90,0.00,,,0.00,meteohub,2013-08-04 12:01:00,
2013-08-04 07:06:00,57.6,54.3,30.12,NW,318,0.0,2.0,89,0.00,,,0.00,meteohub,2013-08-04 12:06:00,
2013-08-04 07:11:00,57.9,54.3,30.12,NW,318,1.0,3.0,88,0.00,,,0.00,meteohub,2013-08-04 12:11:00,
2013-08-04 07:16:00,58.3,54.1,30.12,NNW,333,1.0,3.0,86,0.00,,,0.00,meteohub,2013-08-04 12:16:00,
2013-08-04 07:21:00,58.6,54.1,30.12,NW,309,1.0,4.0,85,0.00,,,0.00,meteohub,2013-08-04 12:21:00,
2013-08-04 07:27:00,58.8,54.0,30.12,West,277,2.0,4.0,84,0.00,,,0.00,meteohub,2013-08-04 12:27:00,
2013-08-04 07:31:00,59.2,54.3,30.12,NNE,25,2.0,4.0,84,0.00,,,0.00,meteohub,2013-08-04 12:31:00,
2013-08-04 07:37:00,59.4,54.1,30.12,NW,313,3.0,4.0,83,0.00,,,0.00,meteohub,2013-08-04 12:37:00,
2013-08-04 07:42:00,59.5,54.0,30.12,NW,320,2.0,4.0,82,0.00,,,0.00,meteohub,2013-08-04 12:42:00,
2013-08-04 07:47:00,59.7,54.1,30.12,NNE,26,4.0,4.0,82,0.00,,,0.00,meteohub,2013-08-04 12:47:00,
2013-08-04 07:52:00,60.1,54.0,30.12,NNW,337,3.0,6.0,80,0.00,,,0.00,meteohub,2013-08-04 12:52:00,
2013-08-04 07:57:00,60.1,54.0,30.12,NE,37,6.0,6.0,80,0.00,,,0.00,meteohub,2013-08-04 12:57:00,
2013-08-04 08:02:00,60.4,54.3,30.13,North,6,4.0,7.0,80,0.00,,,0.00,meteohub,2013-08-04 13:02:00,
2013-08-04 08:07:00,60.6,54.1,30.13,NW,305,4.0,7.0,79,0.00,,,0.00,meteohub,2013-08-04 13:07:00,
2013-08-04 08:12:00,61.0,54.5,30.13,NNW,337,2.0,11.0,79,0.00,,,0.00,meteohub,2013-08-04 13:12:00,
2013-08-04 08:16:00,61.2,54.7,30.13,NW,316,3.0,11.0,79,0.00,,,0.00,meteohub,2013-08-04 13:16:00,
2013-08-04 08:22:00,61.3,54.9,30.14,NW,312,1.0,11.0,79,0.00,,,0.00,meteohub,2013-08-04 13:22:00,
2013-08-04 08:27:00,62.1,55.8,30.13,North,358,3.0,6.0,80,0.00,,,0.00,meteohub,2013-08-04 13:27:00,
2013-08-04 08:32:00,62.1,54.3,30.14,NE,44,2.0,6.0,76,0.00,,,0.00,meteohub,2013-08-04 13:32:00,
2013-08-04 08:37:00,62.1,54.7,30.13,North,11,2.0,6.0,77,0.00,,,0.00,meteohub,2013-08-04 13:37:00,
2013-08-04 08:42:00,62.2,54.9,30.14,ENE,68,1.0,6.0,77,0.00,,,0.00,meteohub,2013-08-04 13:42:00,
2013-08-04 08:47:00,62.4,54.7,30.14,NNE,33,2.0,6.0,76,0.00,,,0.00,meteohub,2013-08-04 13:47:00,
2013-08-04 08:52:00,62.8,55.0,30.14,North,1,2.0,6.0,76,0.00,,,0.00,meteohub,2013-08-04 13:52:00,
2013-08-04 08:57:00,63.0,55.2,30.13,NNE,26,2.0,6.0,76,0.00,,,0.00,meteohub,2013-08-04 13:57:00,
2013-08-04 09:02:00,63.3,55.2,30.14,NNW,327,1.0,5.0,75,0.00,,,0.00,meteohub,2013-08-04 14:02:00,
2013-08-04 09:07:00,63.5,55.0,30.14,North,351,2.0,5.0,74,0.00,,,0.00,meteohub,2013-08-04 14:07:00,
2013-08-04 09:12:00,63.7,55.2,30.14,NW,319,1.0,5.0,74,0.00,,,0.00,meteohub,2013-08-04 14:12:00,
2013-08-04 09:17:00,63.7,55.6,30.14,NW,305,8.0,8.0,75,0.00,,,0.00,meteohub,2013-08-04 14:17:00,
2013-08-04 09:22:00,63.5,54.7,30.14,NNW,343,5.0,8.0,73,0.00,,,0.00,meteohub,2013-08-04 14:22:00,
2013-08-04 09:27:00,64.0,55.6,30.14,NE,36,3.0,8.0,74,0.00,,,0.00,meteohub,2013-08-04 14:27:00,
2013-08-04 09:32:00,64.9,56.1,30.14,NNE,20,1.0,8.0,73,0.00,,,0.00,meteohub,2013-08-04 14:32:00,
2013-08-04 09:37:00,65.5,55.8,30.14,NW,309,4.0,7.0,71,0.00,,,0.00,meteohub,2013-08-04 14:37:00,
2013-08-04 09:42:00,64.9,54.9,30.14,West,273,2.0,6.0,70,0.00,,,0.00,meteohub,2013-08-04 14:42:00,
2013-08-04 09:47:00,64.2,55.0,30.14,NW,307,1.0,8.0,72,0.00,,,0.00,meteohub,2013-08-04 14:47:00,
2013-08-04 09:52:00,64.8,55.9,30.14,NNW,338,2.0,9.0,73,0.00,,,0.00,meteohub,2013-08-04 14:52:00,
2013-08-04 09:57:00,64.9,55.4,30.14,NNW,331,2.0,9.0,71,0.00,,,0.00,meteohub,2013-08-04 14:57:00,
2013-08-04 10:02:00,65.3,55.6,30.14,NNE,25,5.0,9.0,71,0.00,,,0.00,meteohub,2013-08-04 15:02:00,
2013-08-04 10:07:00,65.7,54.9,30.15,NE,34,3.0,8.0,68,0.00,,,0.00,meteohub,2013-08-04 15:07:00,
2013-08-04 10:12:00,66.4,56.7,30.15,NNW,348,3.0,8.0,71,0.00,,,0.00,meteohub,2013-08-04 15:12:00,
2013-08-04 10:17:00,66.0,55.2,30.15,NNW,346,3.0,6.0,68,0.00,,,0.00,meteohub,2013-08-04 15:17:00,
2013-08-04 10:22:00,66.4,56.3,30.15,WSW,240,4.0,8.0,70,0.00,,,0.00,meteohub,2013-08-04 15:22:00,
2013-08-04 10:27:00,66.6,55.6,30.15,ESE,103,1.0,8.0,68,0.00,,,0.00,meteohub,2013-08-04 15:27:00,
2013-08-04 10:32:00,66.9,56.5,30.15,NNE,23,2.0,8.0,69,0.00,,,0.00,meteohub,2013-08-04 15:32:00,
2013-08-04 10:37:00,67.3,56.8,30.15,NNW,328,4.0,7.0,69,0.00,,,0.00,meteohub,2013-08-04 15:37:00,
2013-08-04 10:42:00,66.7,55.0,30.15,NNW,348,4.0,7.0,66,0.00,,,0.00,meteohub,2013-08-04 15:42:00,
2013-08-04 10:48:00,66.4,55.9,30.15,WNW,302,2.0,7.0,69,0.00,,,0.00,meteohub,2013-08-04 15:48:00,
2013-08-04 10:53:00,66.7,55.8,30.15,East,96,2.0,8.0,68,0.00,,,0.00,meteohub,2013-08-04 15:53:00,
2013-08-04 10:58:00,67.5,56.5,30.15,NNW,333,3.0,8.0,68,0.00,,,0.00,meteohub,2013-08-04 15:58:00,
2013-08-04 11:03:00,67.6,55.4,30.15,WNW,300,3.0,7.0,65,0.00,,,0.00,meteohub,2013-08-04 16:03:00,
2013-08-04 11:08:00,68.2,56.3,30.15,NNW,348,2.0,7.0,66,0.00,,,0.00,meteohub,2013-08-04 16:08:00,
2013-08-04 11:13:00,68.2,55.9,30.16,NNW,342,4.0,7.0,65,0.00,,,0.00,meteohub,2013-08-04 16:13:00,
2013-08-04 11:18:00,68.2,56.3,30.16,NNE,16,3.0,6.0,66,0.00,,,0.00,meteohub,2013-08-04 16:18:00,
2013-08-04 11:22:00,68.2,56.3,30.15,NNW,342,2.0,6.0,66,0.00,,,0.00,meteohub,2013-08-04 16:22:00,
2013-08-04 11:28:00,68.0,56.3,30.16,NE,39,1.0,10.0,66,0.00,,,0.00,meteohub,2013-08-04 16:28:00,
2013-08-04 11:33:00,68.7,56.8,30.15,NNE,26,4.0,11.0,66,0.00,,,0.00,meteohub,2013-08-04 16:33:00,
2013-08-04 11:38:00,69.4,56.7,30.16,NE,44,2.0,11.0,64,0.00,,,0.00,meteohub,2013-08-04 16:38:00,
2013-08-04 11:43:00,68.4,55.2,30.16,ENE,63,1.0,6.0,63,0.00,,,0.00,meteohub,2013-08-04 16:43:00,
2013-08-04 11:48:00,68.4,56.5,30.16,NNW,343,5.0,8.0,66,0.00,,,0.00,meteohub,2013-08-04 16:48:00,
2013-08-04 11:53:00,68.4,55.8,30.15,NE,37,3.0,8.0,64,0.00,,,0.00,meteohub,2013-08-04 16:53:00,
2013-08-04 11:58:00,69.1,56.5,30.15,North,11,3.0,8.0,64,0.00,,,0.00,meteohub,2013-08-04 16:58:00,
2013-08-04 12:03:00,69.1,55.9,30.15,NNW,341,3.0,7.0,63,0.00,,,0.00,meteohub,2013-08-04 17:03:00,
2013-08-04 12:08:00,69.6,57.7,30.15,SW,233,3.0,7.0,66,0.00,,,0.00,meteohub,2013-08-04 17:08:00,
2013-08-04 12:13:00,70.2,57.0,30.15,NNE,29,2.0,7.0,63,0.00,,,0.00,meteohub,2013-08-04 17:13:00,
2013-08-04 12:18:00,69.6,56.8,30.14,NNE,33,2.0,7.0,64,0.00,,,0.00,meteohub,2013-08-04 17:18:00,
2013-08-04 12:23:00,69.6,56.5,30.14,WNW,283,4.0,6.0,63,0.00,,,0.00,meteohub,2013-08-04 17:23:00,
2013-08-04 12:28:00,69.3,55.8,30.14,ENE,58,3.0,6.0,62,0.00,,,0.00,meteohub,2013-08-04 17:28:00,
2013-08-04 12:33:00,69.1,56.5,30.15,North,351,3.0,6.0,64,0.00,,,0.00,meteohub,2013-08-04 17:33:00,
2013-08-04 12:38:00,68.5,56.3,30.15,NNW,343,3.0,6.0,65,0.00,,,0.00,meteohub,2013-08-04 17:38:00,
2013-08-04 12:43:00,68.4,55.8,30.14,NNE,16,2.0,5.0,64,0.00,,,0.00,meteohub,2013-08-04 17:43:00,
2013-08-04 12:48:00,69.1,55.6,30.14,WNW,290,2.0,5.0,62,0.00,,,0.00,meteohub,2013-08-04 17:48:00,
2013-08-04 12:53:00,69.6,56.8,30.15,NNW,340,1.0,5.0,64,0.00,,,0.00,meteohub,2013-08-04 17:53:00,
2013-08-04 12:58:00,69.6,56.5,30.15,NE,41,2.0,5.0,63,0.00,,,0.00,meteohub,2013-08-04 17:58:00,
2013-08-04 13:03:00,70.9,57.7,30.14,NNE,27,6.0,6.0,63,0.00,,,0.00,meteohub,2013-08-04 18:03:00,
2013-08-04 13:08:00,69.4,56.7,30.14,North,1,1.0,5.0,64,0.00,,,0.00,meteohub,2013-08-04 18:08:00,
2013-08-04 13:13:00,69.3,56.5,30.15,NNE,23,4.0,6.0,64,0.00,,,0.00,meteohub,2013-08-04 18:13:00,
2013-08-04 13:18:00,69.4,56.3,30.14,WNW,302,2.0,6.0,63,0.00,,,0.00,meteohub,2013-08-04 18:18:00,
2013-08-04 13:23:00,69.6,56.5,30.14,NNW,347,3.0,4.0,63,0.00,,,0.00,meteohub,2013-08-04 18:23:00,
2013-08-04 13:28:00,70.2,55.6,30.14,NE,47,3.0,5.0,60,0.00,,,0.00,meteohub,2013-08-04 18:28:00,
2013-08-04 13:33:00,70.0,55.9,30.14,North,357,3.0,6.0,61,0.00,,,0.00,meteohub,2013-08-04 18:33:00,
2013-08-04 13:38:00,69.4,56.3,30.14,WNW,290,0.0,6.0,63,0.00,,,0.00,meteohub,2013-08-04 18:38:00,
2013-08-04 13:43:00,70.0,56.3,30.13,NE,50,4.0,4.0,62,0.00,,,0.00,meteohub,2013-08-04 18:43:00,
2013-08-04 13:48:00,70.7,57.9,30.13,NE,36,1.0,4.0,64,0.00,,,0.00,meteohub,2013-08-04 18:48:00,
2013-08-04 13:53:00,70.9,57.2,30.14,East,79,1.0,6.0,62,0.00,,,0.00,meteohub,2013-08-04 18:53:00,
2013-08-04 13:58:00,71.1,55.9,30.13,North,351,2.0,6.0,59,0.00,,,0.00,meteohub,2013-08-04 18:58:00,
2013-08-04 14:03:00,70.5,55.9,30.13,NE,40,8.0,8.0,60,0.00,,,0.00,meteohub,2013-08-04 19:03:00,
2013-08-04 14:08:00,69.3,55.8,30.14,North,357,3.0,9.0,62,0.00,,,0.00,meteohub,2013-08-04 19:08:00,
2013-08-04 14:13:00,70.0,56.8,30.13,ENE,71,1.0,9.0,63,0.00,,,0.00,meteohub,2013-08-04 19:13:00,
2013-08-04 14:18:00,70.7,56.7,30.13,ESE,119,1.0,9.0,61,0.00,,,0.00,meteohub,2013-08-04 19:18:00,
2013-08-04 14:23:00,72.0,57.7,30.13,NNE,32,1.0,4.0,61,0.00,,,0.00,meteohub,2013-08-04 19:23:00,
2013-08-04 14:28:00,71.8,56.7,30.13,NNE,19,2.0,4.0,59,0.00,,,0.00,meteohub,2013-08-04 19:28:00,
2013-08-04 14:33:00,71.6,55.0,30.13,NNW,343,2.0,6.0,56,0.00,,,0.00,meteohub,2013-08-04 19:33:00,
2013-08-04 14:38:00,71.6,54.5,30.13,SW,226,4.0,6.0,55,0.00,,,0.00,meteohub,2013-08-04 19:38:00,
2013-08-04 14:44:00,71.2,53.2,30.13,NE,36,2.0,6.0,53,0.00,,,0.00,meteohub,2013-08-04 19:44:00,
2013-08-04 14:49:00,72.3,56.7,30.13,WNW,283,3.0,6.0,58,0.00,,,0.00,meteohub,2013-08-04 19:49:00,
2013-08-04 14:54:00,72.0,55.4,30.13,NNE,13,2.0,5.0,56,0.00,,,0.00,meteohub,2013-08-04 19:54:00,
2013-08-04 14:59:00,71.1,55.9,30.13,NNE,27,1.0,5.0,59,0.00,,,0.00,meteohub,2013-08-04 19:59:00,
2013-08-04 15:04:00,71.8,55.2,30.13,NNW,343,0.0,5.0,56,0.00,,,0.00,meteohub,2013-08-04 20:04:00,
2013-08-04 15:09:00,72.7,57.6,30.13,NNW,329,2.0,5.0,59,0.00,,,0.00,meteohub,2013-08-04 20:09:00,
2013-08-04 15:14:00,72.1,54.5,30.13,ENE,58,2.0,3.0,54,0.00,,,0.00,meteohub,2013-08-04 20:14:00,
2013-08-04 15:19:00,70.9,54.3,30.13,North,358,1.0,4.0,56,0.00,,,0.00,meteohub,2013-08-04 20:19:00,
2013-08-04 15:24:00,70.7,55.6,30.13,NNW,345,1.0,4.0,59,0.00,,,0.00,meteohub,2013-08-04 20:24:00,
2013-08-04 15:29:00,72.0,54.3,30.12,SSW,203,1.0,4.0,54,0.00,,,0.00,meteohub,2013-08-04 20:29:00,
2013-08-04 15:34:00,72.9,54.7,30.13,NNE,30,3.0,4.0,53,0.00,,,0.00,meteohub,2013-08-04 20:34:00,
2013-08-04 15:39:00,72.3,55.8,30.12,NNE,33,0.0,3.0,56,0.00,,,0.00,meteohub,2013-08-04 20:39:00,
2013-08-04 15:44:00,71.8,55.2,30.12,NE,47,1.0,3.0,56,0.00,,,0.00,meteohub,2013-08-04 20:44:00,
2013-08-04 15:49:00,72.3,54.1,30.12,NE,49,1.0,3.0,53,0.00,,,0.00,meteohub,2013-08-04 20:49:00,
2013-08-04 15:54:00,73.0,54.9,30.12,NE,54,0.0,3.0,53,0.00,,,0.00,meteohub,2013-08-04 20:54:00,
2013-08-04 15:59:00,73.0,55.4,30.12,NNW,341,1.0,3.0,54,0.00,,,0.00,meteohub,2013-08-04 20:59:00,
2013-08-04 16:04:00,73.4,56.3,30.12,NNW,336,1.0,3.0,55,0.00,,,0.00,meteohub,2013-08-04 21:04:00,
2013-08-04 16:09:00,73.8,56.1,30.11,NE,37,1.0,3.0,54,0.00,,,0.00,meteohub,2013-08-04 21:09:00,
2013-08-04 16:14:00,73.6,55.9,30.11,NE,37,0.0,3.0,54,0.00,,,0.00,meteohub,2013-08-04 21:14:00,
2013-08-04 16:19:00,73.0,56.8,30.11,NNW,328,2.0,4.0,57,0.00,,,0.00,meteohub,2013-08-04 21:19:00,
2013-08-04 16:24:00,72.7,55.0,30.11,NE,47,1.0,4.0,54,0.00,,,0.00,meteohub,2013-08-04 21:24:00,
2013-08-04 16:29:00,72.7,56.1,30.12,NNW,348,0.0,4.0,56,0.00,,,0.00,meteohub,2013-08-04 21:29:00,
2013-08-04 16:34:00,72.5,54.0,30.12,ENE,58,1.0,3.0,52,0.00,,,0.00,meteohub,2013-08-04 21:34:00,
2013-08-04 16:39:00,72.7,55.0,30.12,NNE,22,2.0,2.0,54,0.00,,,0.00,meteohub,2013-08-04 21:39:00,
2013-08-04 16:44:00,72.3,55.2,30.12,NNE,26,0.0,4.0,55,0.00,,,0.00,meteohub,2013-08-04 21:44:00,
2013-08-04 16:49:00,72.7,55.6,30.12,NNE,15,0.0,4.0,55,0.00,,,0.00,meteohub,2013-08-04 21:49:00,
2013-08-04 16:54:00,72.9,56.3,30.12,NNE,33,1.0,4.0,56,0.00,,,0.00,meteohub,2013-08-04 21:54:00,
2013-08-04 16:59:00,72.1,56.1,30.12,NE,50,2.0,4.0,57,0.00,,,0.00,meteohub,2013-08-04 21:59:00,
2013-08-04 17:04:00,71.8,55.2,30.11,NE,40,0.0,4.0,56,0.00,,,0.00,meteohub,2013-08-04 22:04:00,
2013-08-04 17:09:00,71.4,55.4,30.11,NNW,345,0.0,4.0,57,0.00,,,0.00,meteohub,2013-08-04 22:09:00,
2013-08-04 17:14:00,72.1,56.1,30.11,NE,50,0.0,4.0,57,0.00,,,0.00,meteohub,2013-08-04 22:14:00,
2013-08-04 17:19:00,71.8,55.8,30.12,NE,44,0.0,2.0,57,0.00,,,0.00,meteohub,2013-08-04 22:19:00,
2013-08-04 17:24:00,71.8,57.2,30.12,NE,43,0.0,3.0,60,0.00,,,0.00,meteohub,2013-08-04 22:24:00,
2013-08-04 17:29:00,71.4,57.7,30.11,NNE,19,1.0,3.0,62,0.00,,,0.00,meteohub,2013-08-04 22:29:00,
2013-08-04 17:34:00,71.1,56.5,30.11,NNE,20,0.0,3.0,60,0.00,,,0.00,meteohub,2013-08-04 22:34:00,
2013-08-04 17:39:00,70.7,57.6,30.11,NNE,19,0.0,1.0,63,0.00,,,0.00,meteohub,2013-08-04 22:39:00,
2013-08-04 17:44:00,70.3,57.2,30.11,NNE,18,0.0,1.0,63,0.00,,,0.00,meteohub,2013-08-04 22:44:00,
2013-08-04 17:49:00,70.5,56.8,30.11,NNE,18,0.0,0.0,62,0.00,,,0.00,meteohub,2013-08-04 22:49:00,
2013-08-04 17:54:00,70.5,57.7,30.12,NNE,18,0.0,0.0,64,0.00,,,0.00,meteohub,2013-08-04 22:54:00,
2013-08-04 17:59:00,70.5,59.0,30.12,NNE,18,0.0,0.0,67,0.00,,,0.00,meteohub,2013-08-04 22:59:00,
2013-08-04 18:04:00,70.5,58.6,30.12,NNE,18,0.0,0.0,66,0.00,,,0.00,meteohub,2013-08-04 23:04:00,
2013-08-04 18:09:00,70.3,58.5,30.12,NNE,18,0.0,0.0,66,0.00,,,0.00,meteohub,2013-08-04 23:09:00,
2013-08-04 18:14:00,69.4,59.5,30.12,NNE,18,0.0,0.0,71,0.00,,,0.00,meteohub,2013-08-04 23:14:00,
2013-08-04 18:19:00,69.1,58.1,30.12,NNE,18,0.0,0.0,68,0.00,,,0.00,meteohub,2013-08-04 23:19:00,
2013-08-04 18:24:00,68.5,58.3,30.12,NNE,19,0.0,0.0,70,0.00,,,0.00,meteohub,2013-08-04 23:24:00,
2013-08-04 18:29:00,68.0,58.6,30.12,NNE,18,0.0,0.0,72,0.00,,,0.00,meteohub,2013-08-04 23:29:00,
2013-08-04 18:34:00,67.8,58.5,30.12,NNE,19,0.0,0.0,72,0.00,,,0.00,meteohub,2013-08-04 23:34:00,
2013-08-04 18:39:00,68.0,58.6,30.12,NNE,19,0.0,0.0,72,0.00,,,0.00,meteohub,2013-08-04 23:39:00,
2013-08-04 18:44:00,67.8,58.8,30.12,NNE,19,0.0,0.0,73,0.00,,,0.00,meteohub,2013-08-04 23:44:00,
2013-08-04 18:49:00,67.6,59.4,30.12,NNE,18,0.0,0.0,75,0.00,,,0.00,meteohub,2013-08-04 23:49:00,
2013-08-04 18:54:00,67.1,59.4,30.12,NNE,19,0.0,0.0,76,0.00,,,0.00,meteohub,2013-08-04 23:54:00,
2013-08-04 19:00:00,66.6,58.5,30.11,NNE,18,0.0,0.0,75,0.00,,,0.00,meteohub,2013-08-05 00:00:00,
2013-08-04 19:05:00,66.4,59.0,30.12,NNE,19,0.0,0.0,77,0.00,,,0.00,meteohub,2013-08-05 00:05:00,
2013-08-04 19:10:00,65.8,58.8,30.12,NNE,19,0.0,0.0,78,0.00,,,0.00,meteohub,2013-08-05 00:10:00,
2013-08-04 19:15:00,65.5,58.5,30.12,NNE,18,0.0,0.0,78,0.00,,,0.00,meteohub,2013-08-05 00:15:00,
2013-08-04 19:20:00,65.3,59.4,30.12,NNE,18,0.0,0.0,81,0.00,,,0.00,meteohub,2013-08-05 00:20:00,
2013-08-04 19:25:00,64.6,58.6,30.12,NNE,18,0.0,0.0,81,0.00,,,0.00,meteohub,2013-08-05 00:25:00,
2013-08-04 19:30:00,63.9,59.0,30.12,NNE,18,0.0,0.0,84,0.00,,,0.00,meteohub,2013-08-05 00:30:00,
2013-08-04 19:35:00,63.3,58.8,30.12,NNE,18,0.0,0.0,85,0.00,,,0.00,meteohub,2013-08-05 00:35:00,
2013-08-04 19:40:00,63.1,58.6,30.12,NNE,19,0.0,0.0,85,0.00,,,0.00,meteohub,2013-08-05 00:40:00,
2013-08-04 19:45:00,62.8,58.3,30.12,NNE,18,0.0,0.0,85,0.00,,,0.00,meteohub,2013-08-05 00:45:00,
2013-08-04 19:50:00,62.2,58.3,30.12,NNE,19,0.0,0.0,87,0.00,,,0.00,meteohub,2013-08-05 00:50:00,
2013-08-04 19:55:00,61.9,58.3,30.12,NNE,18,0.0,0.0,88,0.00,,,0.00,meteohub,2013-08-05 00:55:00,
2013-08-04 20:00:00,61.5,57.9,30.12,NNE,19,0.0,0.0,88,0.00,,,0.00,meteohub,2013-08-05 01:00:00,
2013-08-04 20:05:00,61.3,57.7,30.12,NNE,19,0.0,0.0,88,0.00,,,0.00,meteohub,2013-08-05 01:05:00,
2013-08-04 20:10:00,61.0,57.7,30.13,NNE,19,0.0,0.0,89,0.00,,,0.00,meteohub,2013-08-05 01:10:00,
2013-08-04 20:15:00,61.0,57.7,30.13,NNE,19,0.0,0.0,89,0.00,,,0.00,meteohub,2013-08-05 01:15:00,
2013-08-04 20:20:00,60.6,57.7,30.13,NNE,19,0.0,0.0,90,0.00,,,0.00,meteohub,2013-08-05 01:20:00,
2013-08-04 20:25:00,60.6,57.7,30.13,NNE,19,0.0,0.0,90,0.00,,,0.00,meteohub,2013-08-05 01:25:00,
2013-08-04 20:30:00,60.4,57.6,30.13,NNE,19,0.0,0.0,90,0.00,,,0.00,meteohub,2013-08-05 01:30:00,
2013-08-04 20:35:00,60.4,57.7,30.13,NNE,18,0.0,0.0,91,0.00,,,0.00,meteohub,2013-08-05 01:35:00,
2013-08-04 20:40:00,60.3,57.6,30.12,NNE,19,0.0,0.0,91,0.00,,,0.00,meteohub,2013-08-05 01:40:00,
2013-08-04 20:45:00,60.1,57.4,30.12,NNE,19,0.0,0.0,91,0.00,,,0.00,meteohub,2013-08-05 01:45:00,
2013-08-04 20:50:00,60.1,57.7,30.12,NNE,18,0.0,0.0,92,0.00,,,0.00,meteohub,2013-08-05 01:50:00,
2013-08-04 20:55:00,59.7,57.4,30.12,NNE,18,0.0,0.0,92,0.00,,,0.00,meteohub,2013-08-05 01:55:00,
2013-08-04 21:00:00,59.5,57.2,30.12,NNE,19,0.0,0.0,92,0.00,,,0.00,meteohub,2013-08-05 02:00:00,
2013-08-04 21:05:00,59.4,57.0,30.12,NNE,18,0.0,0.0,92,0.00,,,0.00,meteohub,2013-08-05 02:05:00,
2013-08-04 21:10:00,59.2,57.2,30.12,NNE,19,0.0,0.0,93,0.00,,,0.00,meteohub,2013-08-05 02:10:00,
2013-08-04 21:15:00,58.8,56.8,30.12,NNE,19,0.0,0.0,93,0.00,,,0.00,meteohub,2013-08-05 02:15:00,
2013-08-04 21:20:00,58.8,56.8,30.12,NNE,19,0.0,0.0,93,0.00,,,0.00,meteohub,2013-08-05 02:20:00,
2013-08-04 21:25:00,58.6,56.8,30.12,NNE,18,0.0,0.0,94,0.00,,,0.00,meteohub,2013-08-05 02:25:00,
2013-08-04 21:30:00,58.6,56.8,30.12,NNE,19,0.0,0.0,94,0.00,,,0.00,meteohub,2013-08-05 02:30:00,
2013-08-04 21:35:00,58.6,57.2,30.12,NNE,18,0.0,0.0,95,0.00,,,0.00,meteohub,2013-08-05 02:35:00,
2013-08-04 21:40:00,58.5,57.0,30.12,NNE,18,0.0,0.0,95,0.00,,,0.00,meteohub,2013-08-05 02:40:00,
2013-08-04 21:45:00,58.5,57.0,30.12,NNE,18,0.0,0.0,95,0.00,,,0.00,meteohub,2013-08-05 02:45:00,
2013-08-04 21:50:00,58.5,57.0,30.12,East,84,0.0,2.0,95,0.00,,,0.00,meteohub,2013-08-05 02:50:00,
2013-08-04 21:55:00,58.5,57.0,30.12,East,89,0.0,2.0,95,0.00,,,0.00,meteohub,2013-08-05 02:55:00,
2013-08-04 22:00:00,58.5,57.0,30.12,East,89,0.0,2.0,95,0.00,,,0.00,meteohub,2013-08-05 03:00:00,
2013-08-04 22:05:00,58.5,56.7,30.12,East,91,0.0,0.0,94,0.00,,,0.00,meteohub,2013-08-05 03:05:00,
2013-08-04 22:10:00,58.3,56.5,30.12,East,86,0.0,0.0,94,0.00,,,0.00,meteohub,2013-08-05 03:10:00,
2013-08-04 22:16:00,58.3,56.5,30.12,East,91,0.0,0.0,94,0.00,,,0.00,meteohub,2013-08-05 03:16:00,
2013-08-04 22:21:00,58.3,55.9,30.12,East,91,0.0,0.0,92,0.00,,,0.00,meteohub,2013-08-05 03:21:00,
2013-08-04 22:25:00,57.9,55.6,30.12,East,91,0.0,0.0,92,0.00,,,0.00,meteohub,2013-08-05 03:25:00,
2013-08-04 22:31:00,57.6,55.0,30.12,East,91,0.0,0.0,91,0.00,,,0.00,meteohub,2013-08-05 03:31:00,
2013-08-04 22:36:00,57.4,54.9,30.12,East,91,0.0,0.0,91,0.00,,,0.00,meteohub,2013-08-05 03:36:00,
2013-08-04 22:40:00,57.0,54.7,30.12,East,91,0.0,0.0,92,0.00,,,0.00,meteohub,2013-08-05 03:40:00,
2013-08-04 22:46:00,56.8,54.5,30.12,East,91,0.0,0.0,92,0.00,,,0.00,meteohub,2013-08-05 03:46:00,
2013-08-04 22:51:00,56.7,54.3,30.12,East,91,0.0,0.0,92,0.00,,,0.00,meteohub,2013-08-05 03:51:00,
2013-08-04 22:55:00,56.3,54.0,30.12,East,91,0.0,0.0,92,0.00,,,0.00,meteohub,2013-08-05 03:55:00,
2013-08-04 23:01:00,56.1,53.8,30.12,East,91,0.0,0.0,92,0.00,,,0.00,meteohub,2013-08-05 04:01:00,
2013-08-04 23:03:00,55.9,53.6,30.12,East,90,0.0,0.0,92,0.00,,,0.00,meteohub,2013-08-05 04:03:00,
2013-08-04 23:08:00,55.6,53.6,30.12,East,91,0.0,0.0,93,0.00,,,0.00,meteohub,2013-08-05 04:08:00,
2013-08-04 23:13:00,55.4,53.4,30.12,East,91,0.0,0.0,93,0.00,,,0.00,meteohub,2013-08-05 04:13:00,
2013-08-04 23:18:00,55.2,53.6,30.12,East,91,0.0,0.0,94,0.00,,,0.00,meteohub,2013-08-05 04:18:00,
2013-08-04 23:23:00,55.0,53.4,30.12,East,91,0.0,0.0,94,0.00,,,0.00,meteohub,2013-08-05 04:23:00,
2013-08-04 23:28:00,54.7,53.1,30.13,East,91,0.0,0.0,94,0.00,,,0.00,meteohub,2013-08-05 04:28:00,
2013-08-04 23:33:00,54.5,52.9,30.13,East,91,0.0,0.0,94,0.00,,,0.00,meteohub,2013-08-05 04:33:00,
2013-08-04 23:38:00,54.1,52.5,30.13,East,91,0.0,0.0,94,0.00,,,0.00,meteohub,2013-08-05 04:38:00,
2013-08-04 23:43:00,54.0,52.3,30.13,East,91,0.0,0.0,94,0.00,,,0.00,meteohub,2013-08-05 04:43:00,
2013-08-04 23:48:00,53.8,52.3,30.13,East,90,0.0,0.0,95,0.00,,,0.00,meteohub,2013-08-05 04:48:00,
2013-08-04 23:53:00,53.6,52.2,30.13,East,91,0.0,0.0,95,0.00,,,0.00,meteohub,2013-08-05 04:53:00,
2013-08-04 23:56:00,53.6,52.2,30.13,East,91,0.0,0.0,95,0.00,,,0.00,meteohub,2013-08-05 04:56:00,